Location: Table Mountain
(47.2500°N, 120.5778°W)
Time: 21:30:45
(UTC-08:00)

UKube-1 - Pass Details

Date: 31 October 2018
Orbit: 614 x 620 km, 98.4° (Epoch: 16 November)

Event Time Altitude Azimuth Distance (km) Brightness Sun altitude
Rises 18:27:05 0° 355° (N) 2,902 ? -7.4°
Reaches altitude 10° 18:30:42 10° 324° (NW) 1,988 ? -8.0°
Maximum altitude 18:32:09 12° 304° (WNW) 1,880 ? -8.2°
Drops below altitude 10° 18:33:37 10° 284° (WNW) 1,982 ? -8.4°
Sets 18:37:13 0° 251° (WSW) 2,880 ? -9.0°
